Location: Cheching
(60.0667°N, 164.2167°W)
Time: 22:35:13
(UTC+00:00)

N. Korean satellite - Visible Passes

Search period start: 19 October 2020 00:00
Search period end: 29 October 2020 00:00
Orbit: 453 x 504 km, 97.2° (Epoch: 18 October)

Date Brightness Start Highest point End Pass type
(mag) Time Alt. Az. Time Alt. Az. Time Alt. Az.
19 Oct 10.3 15:13:25 10° ENE 15:14:07 10° E 15:14:49 10° E visible
19 Oct 6.9 16:44:42 10° NNE 16:48:11 69° ESE 16:51:38 10° S visible
20 Oct 10.4 05:05:23 10° W 05:06:28 11° W 05:07:33 10° WNW visible
20 Oct 8.1 16:18:42 10° NNE 16:22:00 38° E 16:25:14 10° SSE visible
21 Oct 9.9 04:37:31 10° SW 04:40:04 18° W 04:42:35 10° NW visible
21 Oct 9.2 15:52:53 10° NE 15:55:43 23° E 15:58:30 10° SSE visible
22 Oct 9.0 04:10:33 10° SSW 04:13:44 29° W 04:16:54 10° NNW visible
22 Oct 9.9 15:27:26 10° NE 15:29:20 14° E 15:31:14 10° ESE visible
22 Oct 6.4 16:59:44 10° NNE 17:03:14 85° WNW 17:06:40 10° SSW visible
23 Oct 7.3 16:33:40 10° NNE 16:37:05 53° E 16:40:26 10° S visible
24 Oct 10.1 04:53:25 10° WSW 04:55:16 13° W 04:57:04 10° NW visible
24 Oct 8.6 16:07:43 10° NNE 16:10:50 30° E 16:13:55 10° SSE visible
25 Oct 9.6 04:26:04 10° SW 04:28:52 22° W 04:31:41 10° NW visible
25 Oct 9.5 15:42:00 10° NE 15:44:30 18° E 15:46:59 10° SE visible
25 Oct 6.5 17:14:47 10° N 17:18:13 61° WNW 17:21:36 10° SSW visible
26 Oct 8.5 03:59:16 10° SSW 04:02:34 35° W 04:05:52 10° NNW visible
26 Oct 10.1 15:16:57 10° ENE 15:18:05 11° E 15:19:12 10° ESE visible
26 Oct 6.7 16:48:38 10° NNE 16:52:06 76° ESE 16:55:31 10° S visible
27 Oct 7.9 16:22:35 10° NNE 16:25:54 42° E 16:29:10 10° S visible
28 Oct 9.9 04:41:44 10° SW 04:44:00 16° W 04:46:17 10° NW visible
28 Oct 9.0 15:56:43 10° NE 15:59:36 24° E 16:02:28 10° SSE visible
